[[{"header":{"parameterUnit":"m.s-1","parameterCategory":1,"la1":30.2991,"la2":30.254,"lo1":-89.0895,"lo2":-89.0444,"dy":0.0017,"dx":0.0017,"nx":28,"ny":28,"refTime":"2023-06-21T21:00:00:Z","depth":0,"parameterNumber":2,"parameterNumberName":"U-component_of_WINDS"},"data":[0,0,0,0,0,0,0,0,0,0,0,0,0,0,0,0,0,0,0,0,0,0,0,0,0,0,0,0,0,0,0,0,0,0,0,0,0,0,0,0,0,0,0,0,0,0,0,0,0,0,0,0,0,0,0,0,0,0,1.8642,1.8643,0,1.8689,1.869,1.869,1.8684,1.8683,1.8682,1.8681,1.873,1.8732,1.8734,0,0,0,0,0,0,0,0,0,0,0,0,0,1.8548,1.855,1.8642,1.8643,1.8643,1.8689,1.869,1.869,1.8684,1.8683,1.8682,1.8681,1.8729,1.8731,1.8734,0,0,0,0,0,0,0,0,0,0,0,0,0,1.8592,1.8551,1.8642,1.8646,1.8647,1.8689,1.869,1.869,1.8684,1.8683,1.8682,1.8681,1.8728,1.8731,1.8734,1.8776,0,0,1.8743,1.8745,0,0,0,0,0,0,0,0,1.8589,1.8595,1.8645,1.8646,1.8647,1.8679,1.8674,1.8719,1.8684,1.867,1.8681,1.868,1.8714,1.8718,1.8729,1.8778,1.878,1.8744,1.8745,1.8747,1.8748,0,0,0,0,0,0,0,1.8586,1.8593,1.8661,1.8645,1.8647,1.8645,1.865,1.8683,1.8698,1.8671,1.8671,1.8676,1.8714,1.8726,1.873,1.8781,1.8744,1.8746,1.8748,1.8749,1.8869,1.887,0,0,0,0,0,0,1.8582,1.8591,1.8659,1.8662,1.8614,1.8648,1.8653,1.867,1.8697,1.8701,1.8677,1.8676,1.8722,1.8727,1.8732,1.8784,1.8747,1.875,1.8751,1.8868,1.8869,1.8871,0,0,0,0,0,0,1.858,1.8588,1.8657,1.8626,1.8635,1.8651,1.867,1.8672,1.8684,1.8702,1.8705,1.8687,1.8721,1.8728,1.8766,1.8786,1.8751,1.8754,1.8866,1.8868,1.887,1.8888,0,0,0,0,0,0,1.8578,1.8588,1.8603,1.8627,1.8637,1.869,1.8671,1.8673,1.8689,1.8688,1.8712,1.8715,1.8721,1.8761,1.8769,1.8789,1.8756,1.8864,1.8867,1.8869,1.8886,1.889,1.8895,0,0,0,0,0,1.8574,1.8606,1.8604,1.8613,1.8657,1.8691,1.8697,1.8703,1.8691,1.8707,1.8719,1.8714,1.8782,1.8765,1.8773,1.8795,1.8863,1.8866,1.8869,1.8884,1.889,1.8894,0,0,0,0,0,0,1.8584,1.8609,1.8607,1.8648,1.8667,1.869,1.871,1.8708,1.8732,1.8729,1.8736,1.8742,1.878,1.8791,1.8772,1.8838,1.8821,1.8826,1.8829,1.8835,1.8839,1.8836,1.8759,0,0,0,0,0,1.8591,1.8617,1.8637,1.8671,1.8681,1.8694,1.8709,1.8712,1.8733,1.8741,1.8756,1.8776,1.8802,1.8819,1.8844,1.8887,1.8893,1.8907,1.8911,1.8915,1.8919,1.8944,1.8951,1.8881,1.8881,1.8881,0,0,1.8606,1.8623,1.8638,1.8674,1.8689,1.8716,1.8701,1.873,1.875,1.8745,1.8782,1.8794,1.8817,1.8858,1.8877,1.8869,1.894,1.8919,1.8921,1.8924,1.8948,1.8955,1.8961,1.8883,1.8882,1.8882,0,0,1.8647,1.8661,1.8692,1.8708,1.8732,1.8741,1.8748,1.8771,1.8779,1.8816,1.8814,1.8838,1.8883,1.89,1.8914,1.8963,1.896,1.8971,1.8994,1.9019,1.9024,1.9029,1.9048,1.9054,1.8975,1.8975,1.8975,0,1.8662,1.8702,1.8708,1.8737,1.8754,1.8751,1.8783,1.8798,1.8829,1.884,1.8831,1.8888,1.8903,1.8949,1.8961,1.8973,1.8982,1.8968,1.9023,1.9028,1.9033,1.9051,1.9057,1.8977,1.8976,1.8976,1.8976,0,1.872,1.8748,1.877,1.88,1.8819,1.8849,1.886,1.8879,1.8881,1.8891,1.8929,1.8948,1.8977,1.8988,1.899,1.9035,1.9029,1.9021,1.9004,1.9041,1.9057,1.9064,1.8978,1.8978,1.8978,1.8977,0,0,1.8767,1.8802,1.881,1.8824,1.8851,1.8873,1.8904,1.8933,1.8949,1.8971,1.8997,1.9036,1.9029,1.9046,1.905,1.9071,1.9111,1.9061,1.9062,1.907,1.9163,1.9169,1.9176,1.9109,1.911,1.9111,1.9161,0,1.8811,1.8866,1.8873,1.8921,1.8948,1.8947,1.8974,1.8994,1.9004,1.9029,1.904,1.9068,1.9057,1.9067,1.9088,1.9101,1.9129,1.9098,1.9134,1.9136,1.9129,1.9185,1.9191,1.9237,1.9168,1.9169,1.9169,0,1.8869,1.8893,1.8945,1.8969,1.8981,1.9005,1.9033,1.9056,1.9079,1.9086,1.9105,1.9107,1.9139,1.9121,1.9167,1.9145,1.9161,1.917,1.9172,1.9176,1.9155,1.9191,1.9252,1.9259,1.918,1.9179,1.9178,0,1.89,1.8945,1.8982,1.8994,1.9024,1.9041,1.9054,1.9076,1.9094,1.9118,1.913,1.9158,1.9174,1.9196,1.9205,1.9191,1.9251,1.9233,1.9258,1.9258,1.9271,1.927,1.9336,1.928,1.928,1.928,1.928,0,1.8948,1.898,1.8997,1.9019,1.9055,1.9064,1.9099,1.9111,1.9131,1.9157,1.9158,1.9182,1.9193,1.9219,1.9227,1.9265,1.9272,1.9278,1.928,1.9278,1.9278,1.9289,1.9286,1.9282,1.9281,1.9281,1.9281,0,1.8989,1.9001,1.9041,1.9066,1.9074,1.9099,1.9121,1.9143,1.9154,1.9187,1.9195,1.9212,1.9243,1.9255,1.9292,1.9298,1.9342,1.9341,1.9334,1.9335,1.9359,1.9357,1.9435,1.9446,1.9382,1.9383,1.9383,0,1.9019,1.9043,1.9072,1.9089,1.9103,1.9131,1.9149,1.9159,1.9178,1.9207,1.9226,1.9257,1.9282,1.9332,1.9348,1.9378,1.9378,1.9403,1.9382,1.938,1.9379,1.9378,1.9381,1.9407,1.9408,1.9408,1.9409,0,1.9072,1.9077,1.9103,1.9132,1.9154,1.9177,1.9199,1.9214,1.9227,1.9249,1.928,1.93,1.9339,1.9371,1.9401,1.9415,1.9415,1.9415,1.9423,1.9421,1.9417,1.9421,1.9345,1.9413,1.9413,1.9413,1.9412,1.9412,1.9109,1.9131,1.9155,1.9184,1.9202,1.9224,1.9247,1.9261,1.9287,1.932,1.9324,1.9359,1.9383,1.9424,1.944,1.9467,1.9461,1.9471,1.9474,1.9477,1.9479,1.9412,1.9473,1.9473,1.9473,1.9472,1.9472,0,1.9162,1.9178,1.9205,1.9237,1.9261,1.9258,1.9283,1.9303,1.9334,1.9356,1.9381,1.9419,1.945,1.9469,1.95,1.9518,1.9519,1.9526,1.9525,1.9529,1.9482,1.9473,1.9525,1.9525,1.9525,1.9525,1.9525,1.9525,1.9193,1.9231,1.9239,1.9287,1.9302,1.9336,1.9351,1.9371,1.9389,1.9431,1.9457,1.9469,1.9491,1.9524,1.9552,1.9557,1.9569,1.9577,1.9581,1.9537,1.9532,1.9527,1.9518,1.9579,1.9579,1.9625,1.9626,1.9626]},{"header":{"parameterUnit":"m.s-1","parameterCategory":1,"la1":30.2991,"la2":30.254,"lo1":-89.0895,"lo2":-89.0444,"dy":0.0017,"dx":0.0017,"nx":28,"ny":28,"refTime":"2023-06-21T21:00:00:Z","depth":0,"parameterNumber":3,"parameterNumberName":"V-component_of_WINDS"},"data":[0,0,0,0,0,0,0,0,0,0,0,0,0,0,0,0,0,0,0,0,0,0,0,0,0,0,0,0,0,0,0,0,0,0,0,0,0,0,0,0,0,0,0,0,0,0,0,0,0,0,0,0,0,0,0,0,0,0,0.7612,0.7612,0,0.7629,0.7629,0.7629,0.7647,0.7648,0.7648,0.7648,0.7666,0.7666,0.7666,0,0,0,0,0,0,0,0,0,0,0,0,0,0.7594,0.7594,0.7611,0.7612,0.7612,0.7629,0.7629,0.7629,0.7647,0.7648,0.7648,0.7648,0.7666,0.7666,0.7666,0,0,0,0,0,0,0,0,0,0,0,0,0,0.7606,0.7594,0.7611,0.7623,0.7624,0.7629,0.7629,0.7629,0.7647,0.7648,0.7648,0.7648,0.7666,0.7666,0.7666,0.7661,0,0,0.7667,0.7668,0,0,0,0,0,0,0,0,0.7605,0.7606,0.7621,0.7622,0.7624,0.7636,0.7629,0.764,0.7647,0.7639,0.7648,0.7649,0.7656,0.7657,0.7659,0.7662,0.7663,0.7667,0.7668,0.7668,0.7668,0,0,0,0,0,0,0,0.7604,0.7605,0.7618,0.7621,0.7623,0.7627,0.7629,0.7631,0.7645,0.7639,0.7641,0.7642,0.7656,0.7659,0.766,0.7663,0.7667,0.7668,0.7668,0.7668,0.7662,0.7661,0,0,0,0,0,0,0.7601,0.7605,0.7618,0.7619,0.7615,0.7627,0.763,0.7632,0.7645,0.7647,0.7642,0.7643,0.7658,0.7659,0.7661,0.7655,0.7668,0.7668,0.7668,0.7662,0.7662,0.7661,0,0,0,0,0,0,0.7601,0.7602,0.7617,0.7612,0.7614,0.7627,0.763,0.7632,0.7634,0.7647,0.7649,0.7642,0.7659,0.766,0.7661,0.7656,0.7668,0.7669,0.7663,0.7662,0.7662,0.7644,0,0,0,0,0,0,0.76,0.7602,0.76,0.7612,0.7615,0.7617,0.7629,0.7632,0.7635,0.7637,0.7648,0.765,0.7659,0.766,0.7661,0.7657,0.7669,0.7663,0.7662,0.7662,0.7645,0.7643,0.7641,0,0,0,0,0,0.76,0.7595,0.76,0.7602,0.7612,0.7617,0.7618,0.7629,0.7635,0.7633,0.7641,0.7649,0.7656,0.766,0.7661,0.7657,0.7663,0.7663,0.7662,0.7646,0.7643,0.7641,0,0,0,0,0,0,0.7582,0.7596,0.7603,0.7601,0.7607,0.762,0.7618,0.7625,0.763,0.7632,0.7645,0.7647,0.7646,0.7652,0.7655,0.7652,0.7661,0.7661,0.7649,0.7646,0.7644,0.7643,0.7669,0,0,0,0,0,0.7578,0.758,0.7592,0.759,0.7593,0.7605,0.7607,0.7614,0.7622,0.7624,0.7632,0.7639,0.7643,0.7645,0.7649,0.7646,0.7649,0.7644,0.7642,0.764,0.7639,0.7638,0.7636,0.7659,0.7659,0.7659,0,0,0.7569,0.7577,0.7578,0.7586,0.7592,0.7594,0.7607,0.7608,0.761,0.7625,0.7626,0.7632,0.764,0.7639,0.7639,0.7644,0.7634,0.7639,0.7637,0.7638,0.7637,0.7635,0.7633,0.7658,0.7658,0.7658,0,0,0.7554,0.7561,0.7559,0.7565,0.7574,0.7582,0.7581,0.7593,0.7597,0.7599,0.761,0.7612,0.7618,0.7624,0.7627,0.7615,0.7623,0.7616,0.7605,0.7604,0.7602,0.7601,0.7597,0.7595,0.7615,0.7615,0.7615,0,0.7542,0.7546,0.7558,0.7558,0.7562,0.7576,0.7574,0.7579,0.7589,0.7591,0.7596,0.7604,0.7611,0.7611,0.7608,0.7611,0.7611,0.7614,0.7602,0.76,0.7599,0.7595,0.7593,0.7614,0.7614,0.7614,0.7614,0,0.7531,0.7533,0.7531,0.754,0.7543,0.7543,0.7555,0.7557,0.7564,0.7571,0.7573,0.7581,0.7587,0.7588,0.7595,0.7589,0.7592,0.7599,0.7608,0.7596,0.7592,0.7591,0.7613,0.7613,0.7613,0.7614,0,0,0.7505,0.7521,0.752,0.7524,0.7535,0.7537,0.7537,0.7543,0.7545,0.7551,0.7552,0.7557,0.7564,0.7568,0.7576,0.7575,0.7565,0.7582,0.7583,0.7579,0.7559,0.7553,0.7551,0.757,0.757,0.757,0.7558,0,0.7492,0.7494,0.7504,0.7503,0.7505,0.7518,0.7519,0.7525,0.7532,0.7536,0.7543,0.7547,0.7555,0.7558,0.7558,0.7566,0.7561,0.7567,0.7571,0.7571,0.7568,0.755,0.7544,0.7532,0.7557,0.7557,0.7557,0,0.7477,0.7483,0.7481,0.7492,0.7494,0.7494,0.75,0.7503,0.7511,0.7516,0.7521,0.753,0.7532,0.754,0.7542,0.7546,0.7549,0.7553,0.7553,0.7554,0.7563,0.755,0.7529,0.7527,0.7554,0.7555,0.7555,0,0.7458,0.7465,0.7466,0.7469,0.7482,0.7482,0.7487,0.7495,0.7499,0.7504,0.7506,0.7512,0.7515,0.752,0.753,0.7536,0.7531,0.7541,0.7536,0.7535,0.7534,0.7534,0.7513,0.7536,0.7536,0.7536,0.7536,0,0.7443,0.7441,0.7457,0.7457,0.7456,0.7469,0.7467,0.7474,0.7482,0.7483,0.7495,0.7496,0.751,0.7513,0.7522,0.7522,0.7524,0.7528,0.753,0.7527,0.7526,0.7529,0.753,0.7535,0.7535,0.7536,0.7536,0,0.7421,0.7432,0.7433,0.7445,0.7448,0.7447,0.7458,0.7458,0.7466,0.7468,0.7469,0.7482,0.7486,0.7497,0.7504,0.751,0.7508,0.7512,0.7505,0.7507,0.7501,0.7501,0.7481,0.7479,0.7503,0.7502,0.7502,0,0.741,0.741,0.7422,0.7424,0.7429,0.7432,0.7435,0.7448,0.745,0.746,0.7459,0.7464,0.7469,0.7475,0.7485,0.7491,0.7495,0.7487,0.7496,0.7493,0.7495,0.7495,0.7495,0.7485,0.7485,0.7485,0.7485,0,0.739,0.7396,0.74,0.7406,0.7409,0.7415,0.7421,0.7422,0.7435,0.7438,0.7442,0.7446,0.7454,0.7459,0.7466,0.7471,0.748,0.7482,0.7481,0.7478,0.7474,0.7476,0.75,0.7482,0.7483,0.7483,0.7483,0.7483,0.7374,0.7374,0.7383,0.7387,0.7393,0.7398,0.7399,0.7408,0.7412,0.7418,0.7425,0.7429,0.7438,0.7448,0.7453,0.7457,0.7461,0.746,0.746,0.7459,0.7458,0.7473,0.7458,0.7458,0.7458,0.7458,0.7458,0,0.7354,0.7361,0.7364,0.7372,0.7376,0.7384,0.7391,0.7394,0.7397,0.7404,0.7408,0.7414,0.7419,0.7429,0.7435,0.7435,0.744,0.7437,0.7437,0.7438,0.7453,0.7453,0.7433,0.7433,0.7433,0.7433,0.7433,0.7433,0.7344,0.7345,0.7351,0.7355,0.7362,0.7365,0.7369,0.7374,0.738,0.7385,0.7389,0.7396,0.7404,0.7411,0.7416,0.7419,0.7421,0.7416,0.7421,0.7434,0.7437,0.7439,0.7439,0.7417,0.7417,0.7405,0.7405,0.7405]}]]